Regional Weather Roundup
Issued by NWS Columbia, SC

Home | Current Version | Previous Version | Text Only | Print | Product List | Glossary On
Versions: 1 2 3 4 5 6 7 8 9 10 11 12 13 14 15 16 17 18 19 20 21 22 23 24 25 26 27 28 29 30 31 32 33 34 35 36 37 38 39 40 41 42 43 44 45 46 47 48 49 50
000
ASUS42 KCAE 232010
RWRCAE
REGIONAL WEATHER ROUNDUP
NATIONAL WEATHER SERVICE COLUMBIA SC
300 PM EST MON JAN 23 2017

NOTE: "FAIR" INDICATES FEW OR NO CLOUDS BELOW 12,000 FEET WITH NO
SIGNIFICANT WEATHER AND/OR OBSTRUCTIONS TO VISIBILITY.

NOT ALL STATIONS ARE QUALITY CONTROLLED BY THE NATIONAL
WEATHER SERVICE. USE DATA WITH CAUTION...ESPECIALLY
DEWPOINT OBSERVATIONS.

SCZ001>056-GAZ040-063>065-077-232100-
...UPSTATE SOUTH CAROLINA...

CITY           SKY/WX    TMP DP  RH WIND       PRES   REMARKS
ANDERSON       CLOUDY    62  48  60 NW3       29.30R
LIBERTY        CLOUDY    56  51  83 CALM      29.31R
SPARTANBURG    CLOUDY    54  50  87 W3        29.30R
CLEMSON        CLOUDY    66  44  45 NW8       29.30R
GREENVILLE     CLOUDY    56  49  77 W6        29.31R
GREENWOOD      CLOUDY    57  49  74 NW6       29.32R
GREER          CLOUDY    54  49  83 SW5       29.30R
ROCK HILL      CLOUDY    52  48  86 W5        29.29R
CHESTER        CLOUDY    52  48  87 W3        29.30R
LAURENS        CLOUDY    54  50  87 NW6       29.31R


...CENTRAL SOUTH CAROLINA...

CITY           SKY/WX    TMP DP  RH WIND       PRES   REMARKS
COLUMBIA APT   CLOUDY    58  48  69 W14       29.28R
COLUMBIA OWENS CLOUDY    57  46  66 W9G20     29.29R
MCENTIRE ANGB  CLOUDY    57  47  69 W10       29.28R
ORANGEBURG     CLOUDY    59  47  64 W13       29.28S
SUMTER SHAW    CLOUDY    57  47  69 W8        29.25R
NEWBERRY       CLOUDY    55  50  82 W12       29.32R
AIKEN          MOCLDY    57  48  72 W12       29.33S
BARNWELL       MOCLDY    61  52  72 W12       29.31R
MANNING        MOCLDY    57  46  67 W6        29.27S
CAMDEN         CLOUDY    55  48  76 NW6       29.28R
LANCASTER      CLOUDY    54  48  82 W6        29.29R
WINNSBORO      CLOUDY    54  48  82 W8        29.28S


...EASTERN AND COASTAL SOUTH CAROLINA...

CITY           SKY/WX    TMP DP  RH WIND       PRES   REMARKS
N MYRTLE BCH   LGT RAIN  54  51  90 W5        29.24R
CONWAY         RAIN      54  48  82 W5        29.26R
MARION         CLOUDY    54  50  87 W13       29.26S
HARTSVILLE     CLOUDY    54  46  76 W5        29.26R
FLORENCE       CLOUDY    56  51  84 W8        29.26S
DARLINGTON     CLOUDY    56  49  77 W7        29.27R
CHARLESTON APT PTSUNNY   58  48  69 W10       29.29R
MOUNT PLEASANT MOCLDY    57  50  77 W9G16     29.28R
WALTERBORO     CLOUDY    57  48  72 W10G22    29.31S
BEAUFORT       CLOUDY    62  49  62 W17       29.31S


...EASTERN GEORGIA...

CITY           SKY/WX    TMP DP  RH WIND       PRES   REMARKS
AUGUSTA BUSH F PTSUNNY   64  50  60 VRB7      29.31S
AUGUSTA DANIEL MOSUNNY   63  48  58 NW14G20   29.32R
THOMSON        MOSUNNY   65  53  64 NW8G20    29.36R
WASHINGTON     FAIR      64  54  68 NW12G28   29.32R
CLAXTON        CLOUDY   N/A N/A N/A SW8       29.36S
SYLVANIA       CLOUDY   N/A N/A N/A NW12      29.35R
STATESBORO     CLOUDY    59  54  83 W8G20     29.35R
SAVANNAH       DRIZZLE   59  49  69 W17G25    29.34R


...SOUTHERN NORTH CAROLINA...

CITY           SKY/WX    TMP DP  RH WIND       PRES   REMARKS
CHARLOTTE      CLOUDY    51  47  86 W6        29.29R
MONROE         CLOUDY    54  44  69 W6        29.27R
WADESBORO      CLOUDY    56  47  70 NW3       29.27S
ASHEVILLE      CLOUDY    52  42  69 NW18G31   29.31R

$$



USA.gov is the U.S. government's official web portal to all federal, state and local government web resources and services.